Location: *
(44.1392°N, 4.8079°E)
Time: 07:00:47
(UTC+00:00)

Cosmos 1553 Rocket - Pass Details

Date: 21 June 2021
Orbit: 940 x 1009 km, 82.9° (Epoch: 02 August)

Event Time Altitude Azimuth Distance (km) Brightness Sun altitude
Rises 02:27:40 0° 347° (NNW) 3,712 7.6 -12.6°
Reaches altitude 10° 02:30:16 10° 343° (NNW) 2,749 6.8 -12.3°
Maximum altitude 02:36:20 53° 269° (W) 1,186 4.2 -11.6°
Drops below altitude 10° 02:42:16 10° 194° (SSW) 2,686 5.8 -10.9°
Enters shadow 02:42:18 10° 194° (SSW) 2,694 5.8 -10.9°
